Wind_Gust
12 9 10 9 9 10 10 10 10 10 12 13 14 13 14 10 11 11 9 8 10 10 7 8 11 11 10 8 7 7 8 8 7 8 9 8 6 8 10 9 6 8
7 6 5 5 7 6 7 11 10 11 12 11 13 13 12 11 10 11 10 10 10 10 8 8 9 10 9 8 7 9 7 7 6 8 10 8 7 7 9 8 7 7
6 5 5 6 8 6 6 9 9 10 11 12 12 13 13 11 12 11 11 10 10 9 9 7 7 8 8 8 10 10 9 7 7 6 9 10 8 7 6 7 7 6
3 4 5 5 6 6 6 9 9 9 10 12 12 13 14 12 13 12 9 9 10 8 8 8 8 7 8 8 10 9 8 8 7 7 8 7 8 8 7 7 7 6
8 6 5 4 5 5 7 10 11 9 10 12 12 13 15 13 12 10 9 9 9 8 7 8 6 8 9 7 8 8 8 9 7 7 8 7 7 8 7 8 7 6
7 6 5 5 4 6 8 10 10 9 10 11 13 13 14 13 11 10 11 9 8 8 6 5 6 11 9 8 8 7 8 10 7 8 8 8 6 6 9 7 7 6
9 8 6 6 4 6 8 9 8 9 10 12 14 13 14 13 10 11 10 10 9 7 5 4 8 8 7 10 8 7 8 9 7 9 9 8 10 8 7 6 5 6
10 8 7 5 5 6 8 8 10 12 12 12 13 12 13 11 10 10 10 10 8 7 5 5 5 5 7 9 7 6 7 8 8 8 8 10 10 9 6 7 6 6
12 10 8 5 6 6 7 8 10 11 11 13 13 11 10 10 12 12 11 10 8 7 6 5 5 5 6 6 6 7 5 2 8 13 10 10 11 9 8 7 7 6
13 11 10 8 8 6 7 7 11 10 12 12 11 10 10 8 11 11 10 9 8 7 7 6 5 5 6 7 7 6 5 7 9 11 11 12 11 9 10 9 8 7
14 12 12 10 8 8 9 11 13 11 12 12 12 10 7 10 10 10 10 9 10 8 6 6 7 6 6 7 6 5 6 6 7 7 9 9 10 11 10 10 9 8
13 14 11 11 11 11 12 13 12 11 12 10 11 10 9 11 11 8 10 10 9 8 7 6 8 7 7 8 6 5 5 5 3 4 6 8 10 11 11 8 9 8
16 17 14 12 12 13 13 12 11 10 11 10 9 10 10 10 9 10 8 10 8 9 9 12 13 14 10 5 7 5 6 4 2 5 8 12 10 11 9 9 8 8
17 18 13 15 13 14 14 12 11 9 10 9 11 11 10 10 10 10 8 11 17 16 16 14 14 14 11 10 8 4 6 3 4 5 7 9 8 9 10 8 7 7
14 12 10 13 15 15 14 13 10 9 10 11 10 10 9 8 8 12 19 19 17 15 16 15 16 14 10 10 8 9 5 6 6 6 7 10 9 9 12 13 12 12
14 11 10 12 15 14 16 12 11 11 11 11 11 9 7 9 15 18 18 17 18 16 15 15 14 11 13 11 8 4 7 6 6 6 8 8 10 13 12 11 11 11
14 12 12 12 13 15 13 11 13 13 12 12 12 14 17 17 19 19 17 16 17 17 15 14 11 11 11 8 9 10 11 10 5 5 7 7 8 11 10 9 8 10
14 12 10 10 12 17 10 10 13 13 13 15 17 17 16 18 20 18 16 14 16 17 15 12 12 11 9 11 11 11 9 11 12 10 6 5 8 8 9 10 10 9
15 12 12 13 14 11 15 16 18 18 17 18 17 15 17 19 16 18 16 14 16 18 15 11 12 13 14 13 11 11 12 10 11 12 17 17 18 20 19 19 14 15
17 18 17 15 15 13 15 16 19 17 16 16 17 17 19 17 16 17 15 15 15 16 14 13 15 15 16 15 13 12 11 9 11 14 14 14 14 16 17 17 16 16
17 19 18 14 15 16 18 16 17 17 16 14 17 17 17 16 14 15 14 13 13 12 15 16 15 15 17 17 15 13 12 8 12 13 14 13 12 13 14 15 13 14
14 16 17 14 14 19 21 21 17 17 16 14 19 19 17 17 14 14 15 14 12 13 16 17 16 19 18 18 17 15 11 8 12 13 15 13 13 12 13 10 9 11
17 15 17 15 12 17 20 18 18 18 15 13 20 19 19 18 15 13 12 13 14 15 16 15 16 18 19 19 18 17 10 11 11 14 16 18 12 13 14 13 10 11
19 18 16 18 18 16 15 15 14 14 15 15 18 19 19 15 13 14 13 13 16 16 15 16 14 16 18 19 19 20 14 13 11 14 15 14 13 14 15 15 18 23
16 17 16 17 19 16 16 18 16 14 13 16 17 17 16 13 13 14 15 15 15 15 14 16 13 13 16 17 18 18 16 13 12 11 14 11 12 13 12 14 15 16
16 17 16 16 17 16 16 15 12 14 16 17 17 15 14 12 12 13 16 13 11 12 13 12 13 12 15 17 17 17 15 14 11 13 11 9 8 9 10 11 13 13
Wind_Speed
5 4 5 4 4 5 5 5 4 6 6 7 8 7 7 6 6 7 6 5 6 6 5 5 7 6 5 5 4 4 5 5 4 5 6 5 4 5 5 5 4 5
4 4 3 3 3 3 3 4 5 6 6 7 7 7 6 6 6 6 6 6 6 6 5 5 6 6 5 5 4 5 4 4 4 4 6 5 5 4 5 5 5 5
3 3 3 4 4 4 3 4 4 5 6 7 7 7 6 6 7 7 7 6 6 6 5 5 5 5 5 5 6 5 5 5 5 4 6 6 5 4 4 4 4 4
2 3 3 3 3 4 3 4 4 5 6 6 7 7 7 6 7 7 6 6 6 5 5 5 5 4 4 5 6 6 5 5 4 4 5 4 5 5 4 4 4 3
5 4 3 3 3 3 3 5 5 4 6 6 7 7 8 8 7 6 6 6 6 5 5 5 4 5 5 4 5 5 4 5 4 4 5 4 4 5 4 5 4 4
4 3 3 3 3 3 5 6 5 4 6 7 8 7 8 8 7 6 7 6 5 5 4 4 4 6 5 5 5 4 5 6 4 5 5 5 4 4 4 4 4 4
5 4 4 3 3 4 5 6 5 5 6 7 8 8 8 8 6 7 6 6 5 4 4 3 5 5 4 5 4 4 5 5 4 5 5 5 5 4 4 4 3 4
6 5 4 3 3 4 4 5 5 6 7 8 8 7 7 7 6 6 6 6 5 4 3 4 4 4 5 5 4 4 4 4 5 4 5 6 6 5 4 4 4 4
7 7 5 4 4 4 4 4 5 6 6 8 8 7 6 6 7 7 7 6 5 5 4 4 4 4 4 4 4 5 3 1 5 6 6 6 6 5 4 4 4 4
9 7 7 5 5 4 4 4 5 6 6 8 7 6 6 5 7 7 7 6 5 5 4 4 3 4 4 5 5 4 4 5 6 7 7 7 6 6 6 5 5 4
9 8 8 7 5 5 5 7 7 7 7 8 7 6 5 6 6 6 6 6 6 5 4 4 4 4 4 4 4 3 4 4 5 5 6 6 6 6 7 6 5 5
7 9 4 7 7 7 8 8 6 6 7 6 7 6 6 7 7 5 6 6 6 5 5 4 4 3 4 5 4 4 3 3 2 3 4 5 6 6 6 5 6 5
9 11 7 3 4 8 8 7 6 6 7 6 5 6 6 6 6 6 5 7 5 4 6 8 8 7 5 2 3 4 4 2 1 3 5 6 6 7 6 5 5 5
9 11 8 7 6 7 9 7 7 5 6 5 6 6 6 6 6 7 5 7 10 9 8 8 8 8 6 5 4 2 4 2 2 4 4 4 5 6 5 4 4 4
7 6 5 6 8 8 8 8 6 6 6 7 6 6 5 5 5 9 11 10 10 9 9 8 9 7 4 5 3 4 3 4 4 3 5 6 5 5 6 7 6 6
6 7 6 2 7 9 9 8 7 6 7 7 6 5 4 5 9 11 10 10 11 9 9 8 7 5 7 8 5 1 3 3 4 4 5 5 6 8 7 7 7 7
6 6 7 3 5 4 8 7 8 7 7 6 7 8 9 9 10 11 10 9 10 10 9 7 5 5 9 7 8 8 6 4 2 3 5 4 5 7 6 5 5 6
6 6 6 6 5 8 2 6 7 8 9 9 9 10 9 10 12 10 10 9 9 10 9 7 7 7 8 8 8 9 7 7 6 5 3 3 3 5 4 4 4 4
5 5 6 7 7 4 1 9 10 11 11 10 10 8 10 11 10 10 9 8 9 11 9 6 7 10 10 10 9 8 9 8 6 8 10 10 10 10 9 8 8 8
7 8 8 8 8 5 4 9 11 10 10 9 9 10 11 10 10 10 8 9 9 10 8 7 8 10 11 11 10 10 9 8 7 9 8 8 9 9 8 8 8 7
8 9 10 8 8 7 9 10 10 10 10 8 8 9 10 9 8 9 8 8 8 7 9 9 8 12 13 12 11 10 9 7 7 7 8 8 7 7 8 9 8 8
8 8 10 8 7 9 12 12 10 9 9 8 10 10 9 9 8 8 8 8 7 8 10 10 9 14 14 14 13 11 9 5 6 8 8 7 7 7 6 5 5 7
10 9 9 9 6 8 11 11 11 11 7 6 11 10 11 10 8 8 6 8 9 9 10 8 9 12 14 15 14 13 8 6 6 8 9 10 7 7 7 7 6 7
10 10 9 10 10 8 8 9 8 7 9 5 10 11 11 9 8 8 8 7 9 10 8 9 8 11 15 15 15 15 11 7 6 8 9 8 7 6 7 9 11 15
8 10 10 10 10 9 8 9 9 7 6 8 9 10 9 8 8 8 7 8 8 9 11 10 8 9 14 14 15 14 10 7 7 6 8 5 6 6 6 7 7 9
8 10 10 9 9 10 9 8 7 8 9 9 9 8 7 7 7 8 9 8 7 7 7 7 8 7 10 14 14 14 12 8 6 7 6 5 4 5 6 6 6 6
Wind_Direction
148 141 149 165 173 175 173 171 158 143 142 138 136 146 147 150 131 124 130 121 133 135 130 118 130 136 142 143 135 124 137 144 140 149 143 141 152 149 152 148 141 142
139 128 134 147 165 169 194 174 154 147 146 138 146 148 147 134 131 124 117 119 119 126 125 122 125 137 147 141 135 131 128 130 142 152 147 150 165 148 149 149 144 143
113 120 140 166 182 183 200 177 152 149 142 147 141 137 138 124 120 118 119 115 118 120 121 125 126 132 143 136 143 139 142 143 153 149 145 162 157 154 159 152 144 152
128 147 163 184 188 188 192 156 155 138 135 136 136 134 127 120 118 124 123 117 125 129 136 142 150 142 137 129 141 148 149 152 166 147 147 151 159 151 157 147 142 136
160 168 185 192 204 187 172 155 156 142 139 137 125 123 120 120 123 124 114 125 118 123 137 158 142 142 145 135 142 144 143 150 155 142 138 139 152 144 160 138 140 139
139 157 192 190 204 170 164 154 158 141 135 128 132 128 128 128 130 118 128 123 117 120 147 146 125 156 147 144 141 143 145 148 157 143 139 140 132 130 143 140 134 139
150 160 204 203 193 182 160 149 149 142 133 134 128 130 130 133 132 126 131 125 122 134 142 136 144 139 143 149 151 154 161 166 162 154 147 136 129 123 138 129 140 144
157 166 192 192 169 195 162 147 148 135 140 126 129 138 133 133 129 131 127 124 131 148 148 144 143 126 151 152 151 145 181 184 155 149 135 136 134 146 149 132 130 134
164 173 180 170 165 187 164 152 149 133 127 123 127 133 131 125 134 136 133 137 139 151 148 147 149 140 130 127 131 151 131 89 151 146 136 133 137 147 142 132 123 127
170 172 169 159 168 174 154 141 137 128 125 124 129 131 128 129 135 137 135 138 137 141 150 141 126 126 99 125 130 100 81 109 115 127 138 144 141 139 138 140 139 139
169 159 166 160 171 153 157 143 141 137 130 130 133 140 128 135 130 132 129 135 133 141 149 131 144 124 103 114 96 92 115 106 117 133 138 137 141 148 147 144 142 157
157 158 160 169 166 163 156 148 149 141 133 133 139 143 134 141 135 135 128 137 134 138 148 138 141 108 123 129 115 105 93 83 80 96 109 122 132 138 138 137 145 151
156 164 161 216 199 156 151 149 149 143 138 137 135 134 132 133 126 128 129 136 127 115 74 68 62 54 35 36 114 103 111 107 24 60 126 142 131 135 137 131 120 124
163 164 157 147 223 166 142 144 143 135 130 127 123 119 122 126 120 118 108 75 76 82 81 74 68 50 31 17 26 82 120 108 95 104 102 109 135 139 135 121 112 91
151 143 100 151 208 150 136 138 137 127 121 123 119 119 123 117 119 90 92 88 75 76 78 69 63 52 32 3 17 47 72 123 104 101 90 103 103 86 93 101 96 94
123 102 87 185 201 141 137 132 130 131 118 123 124 111 90 76 75 87 89 95 93 75 73 70 60 55 19 2 345 331 62 57 87 99 96 108 103 96 95 100 108 107
105 95 97 73 316 134 133 125 129 126 127 109 82 86 92 92 91 87 86 84 90 89 76 72 66 41 12 2 3 39 72 67 66 104 114 104 104 105 118 113 114 122
123 111 100 93 77 330 71 108 102 99 93 95 96 90 89 90 88 89 87 87 86 84 74 67 66 24 15 15 22 42 66 79 73 53 37 79 90 80 96 99 100 84
117 105 100 98 93 74 350 91 94 94 97 95 94 98 88 86 91 90 87 85 86 83 73 56 56 22 20 19 21 32 60 75 66 68 73 72 77 79 83 90 84 65
94 82 85 92 94 83 84 87 87 85 93 96 97 90 88 86 85 85 86 82 83 87 82 61 48 19 29 26 18 18 33 68 73 80 82 80 83 84 78 72 76 83
73 80 78 77 94 93 74 67 75 85 80 82 85 87 88 83 82 84 79 84 81 86 82 62 40 25 35 31 21 14 15 72 78 82 81 84 86 87 93 93 91 87
48 72 84 80 82 94 89 85 75 73 86 88 91 85 82 85 72 75 79 77 75 76 76 62 39 28 35 35 27 19 24 59 83 86 82 71 70 75 74 79 98 111
40 48 61 66 61 80 91 91 95 89 71 85 95 89 85 78 80 75 73 76 72 66 71 67 46 26 36 38 36 28 40 51 64 73 76 76 51 58 57 52 49 67
47 45 57 64 56 54 69 86 81 88 105 99 91 93 88 87 90 81 69 70 73 69 64 69 52 28 34 38 41 38 45 52 48 75 77 84 89 66 65 59 63 73
42 59 43 55 61 53 46 67 78 77 71 73 76 80 79 79 80 84 79 68 68 72 66 65 55 34 32 39 43 42 52 53 51 64 82 81 100 97 84 78 67 55
40 53 56 51 61 62 54 45 53 66 66 76 73 75 79 73 70 74 80 70 63 67 65 67 67 49 40 45 49 50 53 66 56 65 65 63 65 88 106 101 84 74